TimeEDT,TemperatureF,Dew PointF,Humidity,Sea Level PressureIn,VisibilityMPH,Wind Direction,Wind SpeedMPH,Gust SpeedMPH,PrecipitationIn,Events,Conditions,WindDirDegrees,DateUTC
12:56 AM,75.0,71.1,87,30.02,10.0,South,3.5,-,N/A,,Mostly Cloudy,170,2012-10-03 04:56:00
1:56 AM,73.0,71.1,93,30.02,10.0,Calm,Calm,-,0.00,,Mostly Cloudy,0,2012-10-03 05:56:00
2:56 AM,73.9,71.1,91,30.02,10.0,Calm,Calm,-,N/A,,Mostly Cloudy,0,2012-10-03 06:56:00
3:56 AM,73.0,71.1,93,30.02,9.0,Calm,Calm,-,N/A,,Mostly Cloudy,0,2012-10-03 07:56:00
4:56 AM,73.0,71.1,93,30.03,9.0,Calm,Calm,-,N/A,,Mostly Cloudy,0,2012-10-03 08:56:00
5:56 AM,73.9,71.1,91,30.06,9.0,Calm,Calm,-,N/A,,Mostly Cloudy,0,2012-10-03 09:56:00
6:56 AM,73.4,69.8,88,30.07,10.0,South,3.5,-,N/A,,Mostly Cloudy,180,2012-10-03 10:56:00
7:56 AM,73.9,71.1,91,30.08,10.0,Calm,Calm,-,N/A,,Overcast,0,2012-10-03 11:56:00
8:56 AM,75.0,71.1,87,30.10,10.0,Calm,Calm,-,N/A,,Overcast,0,2012-10-03 12:56:00
9:56 AM,75.9,70.0,82,30.12,9.0,Calm,Calm,-,N/A,,Overcast,0,2012-10-03 13:56:00
10:56 AM,79.0,66.0,64,30.13,10.0,Calm,Calm,-,N/A,,Overcast,0,2012-10-03 14:56:00
11:56 AM,81.0,66.9,62,30.13,10.0,Calm,Calm,-,N/A,,Overcast,0,2012-10-03 15:56:00
12:56 PM,82.0,70.0,67,30.12,10.0,NNE,3.5,-,N/A,,Overcast,30,2012-10-03 16:56:00
1:56 PM,82.9,70.0,65,30.10,10.0,Calm,Calm,-,N/A,,Mostly Cloudy,0,2012-10-03 17:56:00
2:26 PM,82.4,69.8,66,30.09,10.0,North,4.6,-,N/A,,Overcast,10,2012-10-03 18:26:00
2:46 PM,78.8,71.6,78,30.09,2.0,East,5.8,-,0.00,Rain,Light Rain,80,2012-10-03 18:46:00
2:56 PM,75.0,72.0,90,30.10,1.0,Calm,Calm,-,0.28,Rain,Heavy Rain,0,2012-10-03 18:56:00
3:30 PM,75.2,73.4,94,30.10,2.0,Calm,Calm,-,0.68,Rain,Rain,0,2012-10-03 19:30:00
3:44 PM,75.2,73.4,94,30.10,5.0,NNE,3.5,-,0.69,Rain,Light Rain,20,2012-10-03 19:44:00
3:56 PM,77.0,73.0,88,30.10,7.0,NNE,4.6,-,0.69,,Overcast,20,2012-10-03 19:56:00
4:56 PM,77.0,73.0,88,30.11,8.0,NNE,6.9,-,N/A,,Mostly Cloudy,30,2012-10-03 20:56:00
5:10 PM,75.2,73.4,94,30.11,1.5,North,4.6,-,0.01,Rain,Heavy Rain,10,2012-10-03 21:10:00
5:37 PM,75.2,73.4,94,30.12,3.0,NNE,4.6,-,0.22,Rain,Light Rain,30,2012-10-03 21:37:00
5:56 PM,75.0,73.0,94,30.11,5.0,NE,8.1,-,0.22,,Mostly Cloudy,50,2012-10-03 21:56:00
6:27 PM,73.4,73.4,100,30.12,1.0,Variable,6.9,-,0.00,Rain,Heavy Rain,0,2012-10-03 22:27:00
6:48 PM,73.4,73.4,100,30.13,6.0,NE,4.6,-,0.16,,Mostly Cloudy,50,2012-10-03 22:48:00
6:56 PM,73.9,73.0,97,30.13,5.0,NE,4.6,-,0.16,,Mostly Cloudy,50,2012-10-03 22:56:00
7:56 PM,73.9,73.0,97,30.14,4.0,Calm,Calm,-,N/A,,Mostly Cloudy,0,2012-10-03 23:56:00
8:34 PM,73.4,71.6,94,30.16,4.0,Calm,Calm,-,N/A,,Overcast,0,2012-10-04 00:34:00
8:43 PM,73.4,71.6,94,30.16,4.0,WNW,4.6,-,N/A,,Overcast,300,2012-10-04 00:43:00
8:56 PM,73.9,72.0,93,30.17,4.0,NW,4.6,-,N/A,,Overcast,310,2012-10-04 00:56:00
9:56 PM,73.9,72.0,93,30.18,4.0,North,3.5,-,N/A,,Overcast,360,2012-10-04 01:56:00
10:56 PM,73.9,72.0,93,30.18,4.0,Calm,Calm,-,N/A,,Overcast,0,2012-10-04 02:56:00
11:56 PM,73.4,71.6,94,30.18,5.0,Calm,Calm,-,N/A,,Overcast,0,2012-10-04 03:56:00